Time,TemperatureF,DewpointF,PressureIn,WindDirection,WindDirectionDegrees,WindSpeedMPH,WindSpeedGustMPH,Humidity,HourlyPrecipIn,Conditions,Clouds,dailyrainin,SoftwareType,DateUTC
2013-09-03 00:15:00,63.1,63.0,29.72,NNW,334,0.0,0.0,99,0.00,,,0.00,weatherlink.com 1.10,2013-09-03 04:15:00,
2013-09-03 00:30:00,63.1,63.0,29.73,NW,321,0.0,2.0,99,0.00,,,0.00,weatherlink.com 1.10,2013-09-03 04:30:00,
2013-09-03 00:45:00,63.1,63.0,29.72,NW,321,0.0,2.0,99,0.00,,,0.00,weatherlink.com 1.10,2013-09-03 04:45:00,
2013-09-03 01:00:00,63.0,63.0,29.71,SW,217,0.0,2.0,99,0.00,,,0.00,weatherlink.com 1.10,2013-09-03 05:00:00,
2013-09-03 01:15:00,62.8,63.0,29.70,SW,228,1.0,1.0,99,0.00,,,0.00,weatherlink.com 1.10,2013-09-03 05:15:00,
2013-09-03 01:30:00,62.7,63.0,29.69,SE,143,0.0,1.0,99,0.01,,,0.01,weatherlink.com 1.10,2013-09-03 05:30:00,
2013-09-03 01:45:00,62.7,63.0,29.68,SE,143,0.0,1.0,99,0.02,,,0.02,weatherlink.com 1.10,2013-09-03 05:45:00,
2013-09-03 02:00:00,62.7,63.0,29.69,SE,145,0.0,1.0,99,0.02,,,0.02,weatherlink.com 1.10,2013-09-03 06:00:00,
2013-09-03 02:15:00,62.6,62.0,29.69,SE,145,0.0,1.0,99,0.02,,,0.02,weatherlink.com 1.10,2013-09-03 06:15:00,
2013-09-03 02:30:00,62.4,62.0,29.69,SE,145,0.0,0.0,99,0.00,,,0.02,weatherlink.com 1.10,2013-09-03 06:30:00,
2013-09-03 02:45:00,62.3,62.0,29.69,SE,145,0.0,0.0,99,0.00,,,0.02,weatherlink.com 1.10,2013-09-03 06:45:00,
2013-09-03 03:00:00,62.1,62.0,29.69,SE,145,0.0,1.0,99,0.00,,,0.02,weatherlink.com 1.10,2013-09-03 07:00:00,
2013-09-03 03:15:00,62.1,62.0,29.68,SSE,160,0.0,2.0,99,0.00,,,0.02,weatherlink.com 1.10,2013-09-03 07:15:00,
2013-09-03 03:30:00,62.1,62.0,29.68,SSW,209,1.0,1.0,99,0.00,,,0.02,weatherlink.com 1.10,2013-09-03 07:30:00,
2013-09-03 03:45:00,62.2,62.0,29.68,SSW,209,0.0,0.0,99,0.00,,,0.02,weatherlink.com 1.10,2013-09-03 07:45:00,
2013-09-03 04:00:00,62.1,62.0,29.68,SSW,213,0.0,1.0,99,0.00,,,0.02,weatherlink.com 1.10,2013-09-03 08:00:00,
2013-09-03 04:15:00,62.0,62.0,29.68,West,259,0.0,1.0,99,0.00,,,0.02,weatherlink.com 1.10,2013-09-03 08:15:00,
2013-09-03 04:30:00,61.7,62.0,29.68,West,266,0.0,2.0,99,0.00,,,0.02,weatherlink.com 1.10,2013-09-03 08:30:00,
2013-09-03 04:45:00,61.4,61.0,29.68,West,266,0.0,1.0,99,0.00,,,0.02,weatherlink.com 1.10,2013-09-03 08:45:00,
2013-09-03 05:00:00,61.3,61.0,29.68,West,265,0.0,1.0,99,0.00,,,0.02,weatherlink.com 1.10,2013-09-03 09:00:00,
2013-09-03 05:15:00,61.1,61.0,29.68,West,265,0.0,1.0,99,0.00,,,0.02,weatherlink.com 1.10,2013-09-03 09:15:00,
2013-09-03 05:30:00,60.9,61.0,29.69,South,182,0.0,2.0,99,0.00,,,0.02,weatherlink.com 1.10,2013-09-03 09:30:00,
2013-09-03 05:45:00,60.6,60.0,29.70,SSE,156,0.0,2.0,99,0.00,,,0.02,weatherlink.com 1.10,2013-09-03 09:45:00,
2013-09-03 06:00:00,60.4,60.0,29.70,West,268,0.0,1.0,99,0.00,,,0.02,weatherlink.com 1.10,2013-09-03 10:00:00,
2013-09-03 06:15:00,60.5,60.0,29.71,West,269,0.0,0.0,99,0.00,,,0.02,weatherlink.com 1.10,2013-09-03 10:15:00,
2013-09-03 06:30:00,60.1,60.0,29.71,West,276,0.0,2.0,99,0.00,,,0.02,weatherlink.com 1.10,2013-09-03 10:30:00,
2013-09-03 06:45:00,60.0,60.0,29.71,West,275,0.0,1.0,99,0.00,,,0.02,weatherlink.com 1.10,2013-09-03 10:45:00,
2013-09-03 07:00:00,59.8,60.0,29.71,West,267,0.0,1.0,99,0.00,,,0.02,weatherlink.com 1.10,2013-09-03 11:00:00,
2013-09-03 07:15:00,59.9,60.0,29.72,West,272,0.0,1.0,99,0.00,,,0.02,weatherlink.com 1.10,2013-09-03 11:15:00,
2013-09-03 07:30:00,60.2,60.0,29.73,SSW,210,1.0,2.0,99,0.00,,,0.02,weatherlink.com 1.10,2013-09-03 11:30:00,
2013-09-03 07:45:00,60.7,61.0,29.73,West,267,1.0,1.0,99,0.00,,,0.02,weatherlink.com 1.10,2013-09-03 11:45:00,
2013-09-03 08:00:00,60.7,61.0,29.73,SSW,205,0.0,2.0,99,0.00,,,0.02,weatherlink.com 1.10,2013-09-03 12:00:00,
2013-09-03 08:15:00,61.6,61.0,29.73,WNW,296,0.0,1.0,99,0.00,,,0.02,weatherlink.com 1.10,2013-09-03 12:15:00,
2013-09-03 08:30:00,62.0,62.0,29.73,NW,323,1.0,2.0,99,0.00,,,0.02,weatherlink.com 1.10,2013-09-03 12:30:00,
2013-09-03 08:45:00,62.4,62.0,29.74,NW,323,0.0,2.0,99,0.00,,,0.02,weatherlink.com 1.10,2013-09-03 12:45:00,
2013-09-03 09:00:00,62.9,62.0,29.75,South,184,0.0,1.0,98,0.00,,,0.02,weatherlink.com 1.10,2013-09-03 13:00:00,
2013-09-03 09:15:00,63.6,63.0,29.75,NE,34,1.0,4.0,98,0.00,,,0.02,weatherlink.com 1.10,2013-09-03 13:15:00,
2013-09-03 09:30:00,64.3,64.0,29.74,ESE,113,0.0,4.0,99,0.00,,,0.02,weatherlink.com 1.10,2013-09-03 13:30:00,
2013-09-03 09:45:00,64.4,64.0,29.74,NNE,32,2.0,4.0,97,0.00,,,0.02,weatherlink.com 1.10,2013-09-03 13:45:00,
2013-09-03 10:00:00,64.6,64.0,29.73,ESE,106,1.0,3.0,98,0.00,,,0.02,weatherlink.com 1.10,2013-09-03 14:00:00,
2013-09-03 10:15:00,66.0,65.0,29.73,North,355,3.0,6.0,95,0.00,,,0.02,weatherlink.com 1.10,2013-09-03 14:15:00,
2013-09-03 10:30:00,67.0,66.0,29.73,ENE,58,0.0,6.0,95,0.00,,,0.02,weatherlink.com 1.10,2013-09-03 14:30:00,
2013-09-03 10:45:00,68.0,66.0,29.73,North,10,2.0,4.0,93,0.00,,,0.02,weatherlink.com 1.10,2013-09-03 14:45:00,
2013-09-03 11:01:00,68.9,66.0,29.73,NW,326,2.0,4.0,91,0.00,,,0.02,weatherlink.com 1.10,2013-09-03 15:01:00,
2013-09-03 11:16:00,70.5,67.0,29.73,NNE,23,1.0,4.0,89,0.00,,,0.02,weatherlink.com 1.10,2013-09-03 15:16:00,
2013-09-03 11:31:00,70.5,67.0,29.72,NE,51,0.0,2.0,89,0.00,,,0.02,weatherlink.com 1.10,2013-09-03 15:31:00,
2013-09-03 11:46:00,69.9,66.0,29.72,NNW,329,1.0,3.0,88,0.00,,,0.02,weatherlink.com 1.10,2013-09-03 15:46:00,
2013-09-03 12:02:00,70.2,67.0,29.71,North,360,4.0,5.0,90,0.00,,,0.02,weatherlink.com 1.10,2013-09-03 16:02:00,
2013-09-03 12:16:00,70.1,66.0,29.71,North,355,2.0,5.0,87,0.00,,,0.02,weatherlink.com 1.10,2013-09-03 16:16:00,
2013-09-03 12:31:00,70.0,67.0,29.70,NE,54,0.0,2.0,89,0.00,,,0.02,weatherlink.com 1.10,2013-09-03 16:31:00,
2013-09-03 12:46:00,70.7,67.0,29.70,NE,39,1.0,2.0,88,0.00,,,0.02,weatherlink.com 1.10,2013-09-03 16:46:00,
2013-09-03 13:01:00,71.7,67.0,29.70,ENE,74,1.0,3.0,86,0.00,,,0.02,weatherlink.com 1.10,2013-09-03 17:01:00,
2013-09-03 13:16:00,72.6,68.0,29.69,ESE,118,1.0,3.0,85,0.00,,,0.02,weatherlink.com 1.10,2013-09-03 17:16:00,
2013-09-03 13:31:00,72.7,67.0,29.69,East,90,1.0,3.0,82,0.00,,,0.02,weatherlink.com 1.10,2013-09-03 17:31:00,
2013-09-03 13:46:00,73.0,68.0,29.69,ESE,102,1.0,3.0,83,0.00,,,0.02,weatherlink.com 1.10,2013-09-03 17:46:00,
2013-09-03 14:01:00,71.7,67.0,29.69,ESE,102,0.0,1.0,85,0.00,,,0.02,weatherlink.com 1.10,2013-09-03 18:01:00,
2013-09-03 14:16:00,71.0,68.0,29.68,East,97,0.0,1.0,89,0.00,,,0.02,weatherlink.com 1.10,2013-09-03 18:16:00,
2013-09-03 14:31:00,70.2,68.0,29.68,SE,124,0.0,2.0,91,0.00,,,0.02,weatherlink.com 1.10,2013-09-03 18:31:00,
2013-09-03 14:46:00,70.2,68.0,29.68,SE,124,0.0,1.0,92,0.00,,,0.02,weatherlink.com 1.10,2013-09-03 18:46:00,
2013-09-03 15:01:00,69.9,66.0,29.68,NNW,348,1.0,4.0,87,0.00,,,0.02,weatherlink.com 1.10,2013-09-03 19:01:00,
2013-09-03 15:16:00,69.4,65.0,29.68,West,271,2.0,2.0,85,0.00,,,0.02,weatherlink.com 1.10,2013-09-03 19:16:00,
2013-09-03 15:31:00,69.6,65.0,29.68,NW,321,1.0,3.0,84,0.00,,,0.02,weatherlink.com 1.10,2013-09-03 19:31:00,
2013-09-03 15:46:00,69.8,65.0,29.67,NW,308,1.0,3.0,84,0.00,,,0.02,weatherlink.com 1.10,2013-09-03 19:46:00,
2013-09-03 16:01:00,69.8,63.0,29.68,NNW,344,1.0,5.0,80,0.00,,,0.02,weatherlink.com 1.10,2013-09-03 20:01:00,
2013-09-03 16:16:00,69.8,63.0,29.67,South,185,2.0,4.0,80,0.00,,,0.02,weatherlink.com 1.10,2013-09-03 20:16:00,
2013-09-03 16:31:00,70.1,64.0,29.67,WNW,288,1.0,4.0,80,0.00,,,0.02,weatherlink.com 1.10,2013-09-03 20:31:00,
2013-09-03 16:46:00,71.1,64.0,29.67,West,265,0.0,3.0,79,0.00,,,0.02,weatherlink.com 1.10,2013-09-03 20:46:00,
2013-09-03 17:01:00,71.5,64.0,29.67,WNW,294,0.0,3.0,76,0.00,,,0.02,weatherlink.com 1.10,2013-09-03 21:01:00,
2013-09-03 17:16:00,71.2,63.0,29.67,West,269,1.0,4.0,76,0.00,,,0.02,weatherlink.com 1.10,2013-09-03 21:16:00,
2013-09-03 17:31:00,71.2,63.0,29.67,WNW,296,1.0,4.0,76,0.00,,,0.02,weatherlink.com 1.10,2013-09-03 21:31:00,
2013-09-03 17:46:00,72.3,63.0,29.67,West,262,2.0,4.0,73,0.00,,,0.02,weatherlink.com 1.10,2013-09-03 21:46:00,
2013-09-03 18:01:00,70.7,62.0,29.67,NW,311,1.0,5.0,74,0.00,,,0.02,weatherlink.com 1.10,2013-09-03 22:01:00,
2013-09-03 18:16:00,69.9,62.0,29.67,South,184,0.0,3.0,76,0.00,,,0.02,weatherlink.com 1.10,2013-09-03 22:16:00,
2013-09-03 18:31:00,69.3,64.0,29.67,WSW,238,1.0,2.0,82,0.00,,,0.02,weatherlink.com 1.10,2013-09-03 22:31:00,
2013-09-03 18:46:00,69.1,61.0,29.67,SSW,207,2.0,7.0,76,0.00,,,0.02,weatherlink.com 1.10,2013-09-03 22:46:00,
2013-09-03 19:01:00,68.5,61.0,29.67,WNW,288,1.0,3.0,78,0.00,,,0.02,weatherlink.com 1.10,2013-09-03 23:01:00,
2013-09-03 19:16:00,66.9,61.0,29.68,SSW,213,1.0,3.0,80,0.00,,,0.02,weatherlink.com 1.10,2013-09-03 23:16:00,
2013-09-03 19:31:00,65.3,59.0,29.68,SW,229,0.0,2.0,81,0.00,,,0.02,weatherlink.com 1.10,2013-09-03 23:31:00,
2013-09-03 19:46:00,64.0,58.0,29.68,South,171,1.0,2.0,82,0.00,,,0.02,weatherlink.com 1.10,2013-09-03 23:46:00,
2013-09-03 20:01:00,62.9,59.0,29.69,WNW,294,1.0,5.0,87,0.00,,,0.02,weatherlink.com 1.10,2013-09-04 00:01:00,
2013-09-03 20:16:00,63.0,58.0,29.70,WSW,248,1.0,6.0,84,0.00,,,0.02,weatherlink.com 1.10,2013-09-04 00:16:00,
2013-09-03 20:31:00,62.2,59.0,29.70,NW,304,2.0,3.0,89,0.00,,,0.02,weatherlink.com 1.10,2013-09-04 00:31:00,
2013-09-03 20:46:00,64.3,59.0,29.71,WNW,294,4.0,12.0,83,0.00,,,0.02,weatherlink.com 1.10,2013-09-04 00:46:00,
2013-09-03 21:01:00,64.0,60.0,29.71,WNW,296,2.0,7.0,85,0.00,,,0.02,weatherlink.com 1.10,2013-09-04 01:01:00,
2013-09-03 21:16:00,63.2,59.0,29.72,WNW,301,3.0,8.0,86,0.00,,,0.02,weatherlink.com 1.10,2013-09-04 01:16:00,
2013-09-03 21:31:00,62.8,59.0,29.72,SSE,165,0.0,8.0,87,0.00,,,0.02,weatherlink.com 1.10,2013-09-04 01:31:00,
2013-09-03 21:46:00,62.2,59.0,29.72,SSE,168,0.0,3.0,88,0.00,,,0.02,weatherlink.com 1.10,2013-09-04 01:46:00,
2013-09-03 22:01:00,62.3,58.0,29.72,East,86,1.0,4.0,87,0.00,,,0.02,weatherlink.com 1.10,2013-09-04 02:01:00,
2013-09-03 22:16:00,63.4,58.0,29.73,North,11,3.0,12.0,82,0.00,,,0.02,weatherlink.com 1.10,2013-09-04 02:16:00,
2013-09-03 22:31:00,63.9,58.0,29.73,NNW,329,5.0,13.0,81,0.00,,,0.02,weatherlink.com 1.10,2013-09-04 02:31:00,
2013-09-03 22:46:00,63.4,58.0,29.73,North,350,2.0,3.0,83,0.00,,,0.02,weatherlink.com 1.10,2013-09-04 02:46:00,
2013-09-03 23:01:00,63.2,59.0,29.73,WNW,283,1.0,5.0,85,0.00,,,0.02,weatherlink.com 1.10,2013-09-04 03:01:00,
2013-09-03 23:16:00,63.4,58.0,29.73,NNW,332,3.0,6.0,83,0.00,,,0.02,weatherlink.com 1.10,2013-09-04 03:16:00,
2013-09-03 23:31:00,63.2,58.0,29.72,NNW,329,4.0,14.0,83,0.00,,,0.02,weatherlink.com 1.10,2013-09-04 03:31:00,
2013-09-03 23:46:00,62.9,58.0,29.72,WSW,248,1.0,8.0,84,0.00,,,0.02,weatherlink.com 1.10,2013-09-04 03:46:00,